Location: ???????
(54.5756°N, 22.5183°E)
Time: 06:08:17
(UTC+00:00)

Daily predictions for brighter satellites

Satellite Brightness Start Highest point End
(mag) Time Altitude Azimuth Time Altitude Azimuth Time Altitude Azimuth
NOAA 6 4.0 14:38:07 10° SSE 14:43:13 71° ENE 14:48:20 10° NNW
Cosmos 1869 Rocket 3.6 14:39:49 10° N 14:44:16 85° E 14:48:43 10° SSE
Cosmos 2297 4.5 14:41:53 10° NNW 14:47:00 32° NE 14:52:03 10° E
Meteor 1-14 Rocket 4.5 14:41:45 10° NNW 14:47:44 85° WSW 14:53:34 10° S
Meteor 1-26 Rocket 4.3 14:42:17 10° S 14:48:03 75° E 14:53:42 10° NNE
Cosmos 1933 4.0 14:47:46 10° SSW 14:51:44 58° WNW 14:55:43 10° N
Cosmos 1602 3.7 14:48:15 10° NNW 14:52:10 89° E 14:56:03 10° S
Cosmos 2237 4.3 14:48:05 10° SSW 14:53:50 85° ESE 14:59:37 10° NE
CZ-4C R/B 4.0 14:52:25 10° N 14:55:26 40° WNW 14:58:25 10° SW
Cosmos 921 Rocket 4.3 14:52:58 10° N 14:56:05 19° NE 14:59:12 10° E
RESURS DK-1 3.5 14:54:10 10° S 14:57:39 27° ESE 15:01:10 10° NE
Tsikada Rocket 4.3 14:51:42 10° SSW 14:58:07 78° WNW 15:04:32 10° N
H-2A R/B 3.3 14:59:41 10° SE 15:03:01 32° ENE 15:06:21 10° N
Cosmos 494 Rocket 4.0 14:58:01 10° SSW 15:03:18 80° ESE 15:08:35 10° NNE
NOSS 2-2 (E) 3.9 14:59:34 10° WSW 15:03:24 56° NNW 15:08:12 10° NE
Cosmos 1689 Rocket 2.3 15:00:49 10° NNE 15:03:49 50° E 15:06:47 10° S
COSMOS 2428 3.2 14:59:26 10° S 15:04:48 45° ESE 15:10:13 10° NE
Feng Yun 1-1 Rocket 4.3 14:59:53 10° SE 15:05:05 52° ENE 15:10:21 10° N
Meteor 1-5 Rocket 4.2 15:00:24 10° N 15:05:59 63° ENE 15:11:21 10° SSE
ATLAS 2AS CENTAUR R/B 3.1 15:00:35 10° SW 15:08:38 86° SE 15:16:33 10° NE
Meteor 1-28 Rocket 3.5 15:05:50 10° N 15:09:35 69° WNW 15:13:20 10° SSW
Cosmos 2344 4.3 15:01:49 10° WNW 15:09:45 51° N 15:20:05 10° E
Cosmos 1536 3.4 15:09:47 10° N 15:13:32 35° ENE 15:17:13 10° SE
SJ-7 4.4 15:09:26 10° SSE 15:13:36 82° ENE 15:17:45 10° NNW
FENGYUN 3A 4.4 15:08:27 10° S 15:13:49 60° WSW 15:19:12 10° NNW
Genesis I 3.4 15:14:07 10° NW 15:17:59 51° NE 15:21:46 10° ESE
Cosmos 1862 Rocket 4.3 15:14:18 10° SSE 15:18:10 32° E 15:22:06 10° NNE
Cosmos 2333 4.3 15:15:12 10° SSW 15:20:55 78° ESE 15:26:44 10° NE
CZ-4B R/B 3.8 15:16:14 10° S 15:21:31 62° WSW 15:26:57 10° NNW
SL-16 R/B 4.2 15:17:39 10° N 15:22:38 27° NW 15:27:37 10° WSW
Okean O Rocket 2.4 15:19:03 10° S 15:23:19 56° WSW 15:27:38 10° NNW
Cosmos 1666 3.4 15:21:27 10° N 15:24:49 30° ENE 15:28:09 10° SE
SeaSat 1 3.9 15:22:29 13° ENE 15:24:52 19° NNE 15:28:13 10° NNW
Cosmos 1269 Rocket 4.1 15:20:47 10° SSW 15:26:06 84° WNW 15:31:28 10° NNE
Cosmos 2322 3.8 15:20:29 10° SSW 15:26:13 88° NW 15:31:58 10° NNE
Lacrosse 5 rocket 2.5 15:24:01 10° SSW 15:27:48 31° SE 15:30:31 15° E
Cosmos 2278 Rocket 2.4 15:22:11 10° NW 15:27:52 78° WSW 15:33:31 10° SSE
STARLINK-67 3.1 15:28:01 10° WSW 15:30:44 51° SSE 15:32:30 19° E
Cosmos 2279 Rocket 4.3 15:25:53 10° NNW 15:32:08 72° W 15:38:21 10° S
BREEZE-M DEB (TANK) 4.4 15:28:23 10° WSW 15:33:29 27° S 15:36:17 10° SE
Cosmos 1707 Rocket 3.6 15:29:08 10° S 15:33:37 87° E 15:38:08 10° NNE
Lacrosse 4 Rocket 3.4 15:32:12 10° NNW 15:34:17 13° N 15:35:42 12° NNE
SL-4 R/B 2.7 15:31:13 10° SW 15:34:43 40° SSE 15:37:35 16° E
Cosmos 2360 Rocket 2.8 15:29:47 10° SW 15:35:22 55° NW 15:40:58 10° NNE
USA 215 3.5 15:30:36 14° ENE 15:36:13 59° SSE 15:42:39 10° SW
CZ-4 R/B 2.2 15:34:46 10° ESE 15:38:00 25° ENE 15:41:13 10° N
Cosmos 2369 Rocket 3.1 15:35:45 10° NNW 15:40:33 28° NE 15:43:38 18° E
Meteor 2-6 Rocket 4.1 15:35:21 10° S 15:40:44 83° ESE 15:46:14 10° NNE
Okean-O 2.7 15:36:58 10° SE 15:41:18 54° ENE 15:45:39 10° N
NOAA 12 4.1 15:37:11 10° SSE 15:42:25 63° ENE 15:47:38 10° N
SMAP 3.0 15:37:52 10° SSE 15:42:32 89° ENE 15:47:14 10° NNW
Cosmos 1980 Rocket 4.0 15:38:46 10° WNW 15:42:53 20° NNW 15:47:01 10° NNE
NOSS 5 (C) 4.5 15:41:13 10° NW 15:44:18 77° SW 15:48:04 10° SE
Cosmos 1782 4.0 15:41:39 10° SW 15:45:28 43° WNW 15:49:18 10° N
PSLV R/B 3.9 15:41:27 10° NNE 15:45:38 68° ESE 15:49:44 10° S
STARLINK-46 3.8 15:43:19 10° SW 15:45:41 29° SSE 15:46:37 23° ESE
SL-16 R/B 3.5 15:44:18 10° SE 15:48:07 19° E 15:49:01 18° E
Cosmos 1908 Rocket 3.6 15:44:03 10° N 15:48:25 55° ENE 15:52:43 10° SSE
BREEZE-M R/B 3.9 15:43:32 10° WSW 15:49:28 46° S 15:51:57 17° ESE
Cosmos 1743 3.6 15:46:53 10° N 15:50:14 27° ENE 15:53:34 10° SE
ALOS 4.5 15:48:21 10° SSW 15:52:23 28° W 15:56:26 10° NNW
COSMO-SKYMED 1 3.6 15:52:27 23° ENE 15:53:08 24° E 15:56:41 10° SSE
Cosmos 2251 Rocket 3.6 15:48:04 10° S 15:53:15 57° ESE 15:57:17 17° NE
ISS -0.8 15:51:43 10° WSW 15:53:43 15° SW 15:55:43 10° S
Cosmos 1315 Rocket 3.8 15:50:41 10° SW 15:54:33 46° WNW 15:58:30 10° N
NOSS 2-2 (D) 4.5 15:51:10 10° W 15:54:54 38° NNW 15:57:48 19° NE
YAOGAN 3 4.5 15:51:17 10° SSE 15:55:37 71° ENE 16:00:00 10° NNW
Cosmos 2333 Rocket 2.3 15:50:25 10° SSW 15:56:11 86° NW 16:01:06 15° NNE
Nadezhda 4 Rocket 4.0 15:51:04 10° S 15:57:19 68° E 16:03:35 10° NNE
Cosmos 2237 Rocket 2.5 15:52:44 10° S 15:58:10 47° ESE 16:01:42 21° NE
Cosmos 1553 Rocket 4.4 15:53:40 10° N 15:59:35 38° ENE 16:05:31 10° SE
AQUARIUS 4.5 15:56:21 10° S 16:00:50 71° WSW 16:05:21 10° NNW
Cosmos 2322 Rocket 3.7 15:57:37 10° W 16:02:26 28° NW 16:07:06 11° NNE
Cosmos 292 Rocket 3.8 15:58:31 10° NNW 16:03:25 86° WSW 16:08:18 10° SSE
Meteor 1-10 Rocket 4.3 15:58:00 10° SSW 16:03:35 78° WNW 16:09:15 10° NNE
Cosmos 1975 4.4 16:01:03 10° N 16:02:33 18° NNE 16:02:33 18° NNE
YAOGAN 1 3.0 16:00:47 10° SE 16:04:49 39° ENE 16:08:51 10° N
Envisat 2.9 16:00:20 10° SSE 16:05:25 79° ENE 16:10:32 10° NNW
COBE Rocket 3.7 16:01:07 10° NNE 16:05:47 73° ESE 16:10:27 10° S
CORIOLIS 4.4 16:00:22 10° S 16:05:49 74° WSW 16:11:19 10° NNW
Cosmos 1812 2.6 16:02:32 10° S 16:06:25 89° NW 16:09:51 13° NNE
NOSS 3-1 (C) 4.1 16:00:41 10° NW 16:07:22 53° NNE 16:12:23 22° E
Okean 1-7 3.7 16:05:19 10° SSE 16:09:14 33° E 16:09:48 32° ENE
COSMOS 2455 4.0 16:03:56 10° W 16:09:25 34° NNW 16:13:29 17° NNE
Cosmos 2219 Rocket 2.4 16:05:13 10° SW 16:10:51 73° NW 16:15:17 17° NNE
SL-16 R/B 3.9 16:06:15 10° W 16:10:53 25° NNW 16:15:10 12° NNE
H-2A R/B 4.0 16:13:14 12° NNE 16:13:14 12° NNE 16:13:55 10° NNE
YAOGAN 6 2.5 16:08:20 10° SSE 16:11:51 59° ENE 16:15:25 10° N
Cosmos 1733 Rocket 4.4 16:07:57 10° NNW 16:12:06 42° W 16:16:14 10° SSW
CZ-4B R/B 4.1 16:11:14 10° NNW 16:13:47 19° WNW 16:16:19 10° WSW
Cosmos 407 Rocket 4.4 16:10:37 10° SSE 16:14:51 27° ESE 16:14:51 27° ESE
USA 229 DEB 4.0 16:09:12 10° NW 16:16:08 55° NNE 16:20:20 26° E
USA 229 4.0 16:09:19 10° NW 16:16:14 55° NNE 16:20:25 26° E
Exosat Rocket 3.4 16:12:39 10° SSW 16:17:46 79° ESE 16:20:58 23° NE
Cosmos 1943 Rocket 2.5 16:13:45 10° NNW 16:19:12 45° NE 16:21:33 30° E
Cosmos 2026 Rocket 4.1 16:13:40 10° SSE 16:19:26 48° E 16:25:14 10° NNE
NOSS 3-1 (A) 4.1 16:14:43 10° NW 16:21:18 50° NNE 16:25:08 28° E
Meteor 1-27 Rocket 3.8 16:15:55 10° SSW 16:21:43 87° WNW 16:27:40 10° NNE
NOSS 3-4 (A) 3.8 16:15:46 10° WSW 16:21:52 64° NNW 16:25:50 25° NE
NOSS 3-4 (C) 3.8 16:15:51 10° WSW 16:21:58 64° NNW 16:25:58 25° NE
CZ-4 R/B 4.3 16:17:53 10° SSE 16:22:02 70° ENE 16:26:13 10° N
BREEZE-M DEB (TANK) 4.4 16:20:53 10° W 16:25:07 22° SW 16:27:24 10° SSE
Cosmos 1867 3.5 16:20:48 10° NW 16:26:19 80° NE 16:29:57 22° SE
Cosmos 1980 3.6 16:23:30 10° SSW 16:29:08 78° ESE 16:32:12 28° NE
ATLAS 5 CENTAUR R/B 3.1 16:28:57 10° SSW 16:29:33 16° S 16:29:33 16° S
Cosmos 1417 Rocket 4.5 16:25:00 10° N 16:31:02 55° ENE 16:37:03 10° SSE
Cosmos 2297 3.8 16:26:01 10° NW 16:31:46 78° WSW 16:37:26 10° SSE
CSL-04 Rocket 3.5 16:26:59 10° SSE 16:32:13 69° ENE 16:37:31 10° NNW
Cosmos 921 Rocket 3.0 16:30:38 10° NNW 16:34:54 80° WSW 16:39:14 10° SSE
Cosmos 1441 Rocket 3.3 16:31:24 10° NNW 16:35:16 74° WSW 16:39:02 10° S
RESURS DK-1 3.1 16:31:29 10° SW 16:35:30 49° NW 16:37:12 30° N
NOSS 0 Rocket 3.9 16:32:22 10° SW 16:38:38 87° NW 16:42:17 27° NE
SKYMED 2 3.5 16:41:07 58° ENE 16:41:34 62° ESE 16:45:53 10° S
Cosmos 1782 Rocket 3.6 16:38:44 10° NNW 16:43:07 80° W 16:47:27 10° S
Sich 1 Rocket 3.4 16:40:01 10° N 16:44:28 84° E 16:48:52 10° SSE
Okean 2 Rocket 3.7 16:41:25 10° N 16:44:31 40° NNE 16:44:31 40° NNE
Meteor 1-18 Rocket 4.3 16:42:55 10° S 16:48:26 53° E 16:49:26 47° ENE
Cosmos 1627 Rocket 4.3 16:42:21 10° S 16:48:26 77° E 16:54:37 10° NNE
Ariane Rocket 3.3 16:49:10 46° NE 16:49:10 46° NE 16:53:26 10° N
CSL-04 Debris 4.1 16:43:06 10° SSE 16:48:34 89° ENE 16:54:03 10° NNW
COSMOS 2428 3.5 16:43:38 10° WSW 16:49:07 47° NW 16:52:35 22° NNE
Cosmos 1655 Rocket 4.3 16:46:34 10° SSE 16:51:59 43° ESE 16:51:59 43° ESE
Cosmos 2195 Rocket 4.4 16:50:06 10° S 16:56:21 89° W 17:02:43 10° N
Cosmos 1703 Rocket 3.6 16:54:23 10° SSW 16:58:52 78° WNW 17:00:18 43° N
ATLAS 2AS CENTAUR R/B 3.6 16:52:34 10° W 17:00:23 51° NNW 17:03:59 31° NE
Meteor 2-9 Rocket 4.2 16:55:24 10° NNW 17:01:19 77° ENE 17:07:09 10° SSE
SeaSat 1 2.8 17:02:16 47° NNE 17:02:16 47° NNE 17:06:20 10° NNW
Cosmos 1092 Rocket 4.2 16:58:48 10° SSW 17:05:05 69° WNW 17:11:21 10° N
Lacrosse 5 rocket 1.6 17:02:32 10° WSW 17:06:10 65° WSW 17:06:10 65° WSW
Cosmos 1190 Rocket 4.4 17:02:54 10° S 17:06:49 45° SSE 17:06:49 45° SSE
NOAA 11 4.2 17:05:45 10° SSE 17:11:14 82° WSW 17:16:46 10° NNW
CZ-4 R/B 2.5 17:09:12 10° S 17:12:54 41° W 17:16:35 10° NNW
SL-4 R/B 2.8 17:10:13 10° W 17:13:11 45° SW 17:13:11 45° SW
Lacrosse 4 Rocket 3.6 17:10:51 10° NNW 17:12:01 16° NNW 17:12:01 16° NNW
USA 215 3.2 17:17:57 56° ENE 17:19:28 81° NNW 17:26:02 10° W
Cosmos 2360 Rocket 4.1 17:16:23 10° WNW 17:20:39 21° NNW 17:22:51 17° N
Cosmos 2369 Rocket 2.0 17:19:40 10° NNW 17:25:20 89° ENE 17:25:28 86° SE
Cosmos 2344 4.1 17:16:40 10° NW 17:25:37 81° NE 17:30:40 40° ESE
Cosmos 1743 4.3 17:22:32 10° NNW 17:26:06 35° W 17:29:38 10° SSW
USA 116 4.4 17:26:03 78° NNW 17:26:22 83° WNW 17:31:35 10° SSW
Cosmos 1980 Rocket 4.2 17:25:52 10° NNW 17:29:03 15° N 17:29:03 15° N
COSMO-SKYMED 1 3.3 17:29:39 51° WNW 17:29:39 51° WNW 17:33:47 10° SW
SL-16 R/B 2.2 17:25:45 10° SSW 17:30:56 74° S 17:30:56 74° S
S3M 4.0 17:26:01 10° NNW 17:32:16 77° W 17:38:24 10° S
Meteor 1-12 Rocket 4.2 17:29:05 10° NNW 17:35:03 86° WSW 17:35:22 80° SSW
Cosmos 614 Rocket 4.4 17:31:01 10° SSW 17:34:58 55° SW 17:34:58 55° SW
YAOGAN 1 4.3 17:37:06 10° SSW 17:40:59 32° W 17:44:54 10° NNW
Cosmos 2333 Rocket 3.8 17:36:20 10° W 17:41:16 28° NNW 17:43:07 24° N
Cosmos 2237 Rocket 3.1 17:36:52 10° WSW 17:42:19 45° NW 17:43:33 39° NNW
Cosmos 2322 Rocket 4.3 17:45:07 10° NW 17:48:28 16° N 17:48:55 16° N
H-2A R/B 4.3 17:53:52 14° N 17:53:52 14° N 17:54:36 10° NNW
Cosmos 2219 Rocket 3.9 17:51:13 10° W 17:55:47 24° NNW 17:57:01 23° N
Cosmos 407 Rocket 4.4 17:51:22 10° SW 17:55:06 45° WSW 17:55:06 45° WSW
COSMOS 2455 4.4 17:52:09 10° NW 17:56:37 25° N 17:56:37 25° N
SL-16 R/B 4.3 17:53:49 10° NW 17:57:01 15° N 17:57:01 15° N
NOSS 3-1 (C) 4.0 17:51:35 10° NW 17:58:48 76° SW 17:59:49 67° S
Cosmos 1943 Rocket 3.0 17:57:38 10° NW 18:03:03 47° WSW 18:03:08 47° WSW
USA 229 DEB 3.9 18:00:20 10° NW 18:07:26 68° SW 18:07:49 67° SSW
USA 229 3.9 18:00:27 10° NW 18:07:32 68° SW 18:07:53 67° SSW
NOSS 3-1 (A) 3.9 18:05:43 10° NW 18:12:36 82° W 18:12:36 82° W
NOSS 3-4 (A) 4.5 18:07:54 10° WNW 18:13:17 39° NNW 18:13:17 39° NNW
NOSS 3-4 (C) 4.5 18:07:59 10° WNW 18:13:24 39° NNW 18:13:24 39° NNW
ATLAS 2AS CENTAUR R/B 3.9 18:45:19 10° WNW 18:51:24 41° NNW 18:51:24 41° NNW
USA 215 4.5 19:05:18 36° WNW 19:05:18 36° WNW 19:08:57 10° WNW
